Terminal Aerodrome Forecast
Issued by NWS

Home | Current Version | Previous Version | Text Only | Print | Product List | Glossary On
Versions: 1 2 3 4 5 6 7 8 9 10 11 12 13 14 15 16 17 18 19 20
000
FTUS43 KGRR 301414 AAA
TAFLAN
TAF AMD
KLAN 301414Z 3014/3112 21004KT 2SM BR OVC004
     FM301500 24004KT 4SM BR OVC009
     FM301700 25005KT 6SM HZ BKN015
     FM301900 25007KT P6SM BKN025
     FM302300 23005KT P6SM SKC
     FM310600 VRB03KT 4SM BR SKC
     FM311100 VRB03KT 2SM BR SKC=

USA.gov is the U.S. government's official web portal to all federal, state and local government web resources and services.